Regional Weather Roundup
Issued by NWS

Home | Current Version | Previous Version | Text Only | Print | Product List | Glossary Off
Versions: 1 2 3 4 5 6 7 8 9 10 11 12 13 14 15 16 17 18 19 20 21 22 23 24 25 26 27 28 29 30 31 32 33 34 35 36 37 38 39 40 41 42 43 44 45 46 47 48 49 50

000
ASUS43 KLOT 291900
RWRIL

ILLINOIS REGIONAL WEATHER ROUNDUP
NATIONAL WEATHER SERVICE CHICAGO/ROMEOVILLE IL
200 PM CDT WED JUL 29 2015

NOTE: "FAIR" INDICATES FEW OR NO CLOUDS BELOW 12,000 FEET WITH NO
SIGNIFICANT WEATHER AND/OR OBSTRUCTIONS TO VISIBILITY.

* THESE STATIONS ARE NOT UNDER NWS QUALITY CONTROL. THEY ALSO MAY NOT
  REPORT WEATHER SUCH AS PRECIPITATION OR FOG.

ILZ001-002-007-009-015-016-024-292000-
NORTHWEST ILLINOIS

CITY           SKY/WX    TMP DP  RH WIND       PRES   REMARKS
MOLINE         MOSUNNY   84  56  38 NW12G21   30.06S HX  83
STERLING*      SUNNY     84  61  45 NW10      30.04S HX  84
$$

ILZ003-004-008-010-011-017-018-292000-
NORTH CENTRAL ILLINOIS

CITY           SKY/WX    TMP DP  RH WIND       PRES   REMARKS
ROCKFORD       MOSUNNY   85  53  33 W15G21    30.04R HX  83
$$

ILZ005-006-012>014-019>023-292000-
NORTHEAST ILLINOIS

CITY           SKY/WX    TMP DP  RH WIND       PRES   REMARKS
CHICAGO-OHARE  PTSUNNY   87  50  27 NW14      29.98F HX  84
CHICAGO-MIDWAY PTSUNNY   88  56  33 W13       29.98S HX  86
AURORA         SUNNY     83  59  44 W14       30.02S HX  83
LANSING*       MOSUNNY   87  62  43 W6        29.98F HX  87
WAUKEGAN       SUNNY     83  54  36 W8G17     29.98S HX  82
DUPAGE AIRPORT SUNNY     85  49  28 W13       30.00S HX  83
WHEELING       SUNNY     86  52  30 NW14G20   29.99F HX  84
NORTHERLY ISL    N/A     81  66  60 NE6         N/A  HX  83
$$

LMZ740>746-292000-
SOUTHERN LAKE MICHIGAN

STATION/POSITION SKY/WX   TEMP    WIND        PRES    VSBY  WAVE
                          AIR SEA DIR/SP/G                  HT/PER
                          (F)     (DEG/KT/KT) (MB)    (MI)  (FT/S)
HARRISON CRIB              77      30/  7/  8   N/A
BURNHAM HARBOR             80      60/  5/ 10   N/A
CALUMET HARBOR             80                   N/A
BURNS HARBOR               76      20/  6/  7 1016.3R
MICHIGAN CITY              77     320/  6/  7   N/A
MICHIGAN CITY 6N           76 75  350/  6/  6   N/A           1/ 2
ST. JOSEPH                 75 75  330/  8/ 10   N/A           1/ 3
$$

ILZ025>027-034>036-040-047-049-050-058-095>099-292000-
WEST-CENTRAL ILLINOIS

CITY           SKY/WX    TMP DP  RH WIND       PRES   REMARKS
QUINCY         MOSUNNY   84  62  47 N12       30.10R HX  85
MACOMB*        SUNNY     83  62  47 N6        30.11R HX  84
$$

ILZ028>032-037-038-041>044-048-051>054-059>061-292000-
CENTRAL ILLINOIS

CITY           SKY/WX    TMP DP  RH WIND       PRES   REMARKS
DECATUR        PTSUNNY   87  73  62 N17G23    30.04R HX  94
PEORIA         SUNNY     87  63  44 NW8       30.06R HX  88
SPRINGFIELD    PTSUNNY   88  70  55 N12       30.05R HX  93
TAYLORVILLE    NOT AVBL
$$

ILZ033-039-045-046-055>057-062-063-292000-
EAST-CENTRAL ILLINOIS

CITY           SKY/WX    TMP DP  RH WIND       PRES   REMARKS
CHAMPAIGN      PTSUNNY   84  75  74 NW12      30.03R HX  92
MATTOON        CLOUDY    87  75  67 N9        30.01S HX  96
$$

ILZ079-100>102-292000-
SOUTHWEST ILLINOIS

CITY           SKY/WX    TMP DP  RH WIND       PRES   REMARKS
ALTON          MOSUNNY   84  73  70 NW9G16    30.05R HX  91
BELLEVILLE     SUNNY     89  77  68 N7        30.03R HX 101
CAHOKIA*       SUNNY     90  71  53 N13       30.03F HX  96
SPARTA*        MOSUNNY   87  76  69 N13       30.04R HX  96
$$

ILZ064>066-069>071-074>076-080>082-084>086-088>090-092>094-292000-
SOUTH-CENTRAL ILLINOIS

CITY           SKY/WX    TMP DP  RH WIND       PRES   REMARKS
CARBONDALE     PTSUNNY   90  78  68 NW10      29.99F HX 104
MARION         PTSUNNY   90  79  70 NW8       30.00S HX 105
MT. VERNON     MOSUNNY   88  75  66 W7        30.01R HX  97
SALEM*         PTSUNNY   85  76  72 NW5       30.02F HX  94
$$

ILZ067-068-072-073-078-083-087-091-292000-
SOUTHEAST ILLINOIS

CITY           SKY/WX    TMP DP  RH WIND       PRES   REMARKS
LAWRENCEVILLE  PTSUNNY   89  78  70 W7        29.98F HX 103
HARRISBURG*    MOSUNNY   94  77  57 W8        29.99S HX 108
$$

ABBREVIATIONS USED IN REMARKS
   TC - TEMPERATURE IN CELSIUS
  WCI - WIND CHILL INDEX
   HX - HEAT INDEX
  VSB - VISIBILITY
$$



USA.gov is the U.S. government's official web portal to all federal, state and local government web resources and services.